Weather History for Novato, CA

Change the Weather History Date:

Wednesday, July 31, 2013

  Actual Average (KAPC) Record (KAPC)
Temperature  
Mean Temperature 64 °F 65 °F  
Max Temperature 78 °F 78 °F 91 °F (2000)
Min Temperature 50 °F 52 °F 45 °F (2005)
Degree Days  
Heating Degree Days 1    
Month to date heating degree days  
Since 1 June heating degree days  
Since 1 July heating degree days  
Cooling Degree Days 0    
Month to date cooling degree days  
Year to date cooling degree days  
Since 1 June cooling degree days  
Growing Degree Days 14 (Base 50)    
Moisture  
Dew Point 52 °F    
Average Humidity 73    
Maximum Humidity 100    
Minimum Humidity 36    
Precipitation  
Precipitation 0.00 in - 0.00 in (2014)
Month to date precipitation  
Year to date precipitation  
Since 1 July precipitation  
Sea Level Pressure  
Sea Level Pressure 30.05 in    
Wind  
Wind Speed 3 mph (SSW)    
Max Wind Speed 18 mph    
Max Gust Speed 23 mph    
Visibility 10 miles    
Events Rain    
T = Trace of Precipitation, MM = Missing Value Source: NWS Daily Summary

Daily Weather History Graph

Daily Weather History Graph

Search for Another Location

Airport:

Trip Planner

Search our weather history database for the weather conditions in past years. The results will help you decide how hot, cold, wet, or windy it might be!

Date:

Astronomy

Jul. 31, 2013 Rise Set
Actual Time 6:12 AM PDT 8:20 PM PDT
Civil Twilight 5:42 AM PDT 8:49 PM PDT
Nautical Twilight 5:07 AM PDT 9:25 PM PDT
Astronomical Twilight 4:28 AM PDT 10:04 PM PDT
Moon 1:11 AM PDT (7/31) 3:41 PM PDT (7/31)
Length of Visible Light 15h 06m
Length of Day
14h 07m
Waning Crescent, 31% of the Moon is Illuminated
Jul 31
Waning Crescent
Aug 6
New
Aug 14
First Quarter
Aug 20
Full
Aug 28
Last Quarter

Hourly Weather History & Observations

Time (PDT) Temp. Dew Point Humidity Pressure Visibility Wind Dir Wind Speed Gust Speed Precip Events Conditions
12:15 AM 51.8 °F 51.8 °F 100% 30.09 in 10.0 mi Calm Calm - N/A   Clear
12:35 AM 53.6 °F 53.6 °F 100% 30.09 in 10.0 mi Calm Calm - N/A   Partly Cloudy
12:55 AM 53.6 °F 53.6 °F 100% 30.09 in 10.0 mi Calm Calm - N/A   Partly Cloudy
1:15 AM 50.0 °F 50.0 °F 100% 30.09 in 10.0 mi Calm Calm - N/A   Partly Cloudy
1:35 AM 53.6 °F 53.6 °F 100% 30.08 in 10.0 mi ESE 3.5 mph - N/A   Mostly Cloudy
1:55 AM 51.8 °F 51.8 °F 100% 30.08 in 10.0 mi Calm Calm - N/A   Scattered Clouds
2:15 AM 50.0 °F 50.0 °F 100% 30.08 in 10.0 mi Calm Calm - N/A   Partly Cloudy
2:35 AM 53.6 °F 53.6 °F 100% 30.07 in 10.0 mi Calm Calm - N/A   Mostly Cloudy
2:55 AM 53.6 °F 53.6 °F 100% 30.07 in 10.0 mi SSE 3.5 mph - N/A   Overcast
3:15 AM 53.6 °F 53.6 °F 100% 30.07 in 10.0 mi NW 3.5 mph - N/A   Overcast
3:35 AM 53.6 °F 53.6 °F 100% 30.07 in 10.0 mi NNW 3.5 mph - N/A   Overcast
3:55 AM 53.6 °F 53.6 °F 100% 30.07 in 10.0 mi Calm Calm - N/A   Overcast
4:15 AM 53.6 °F 53.6 °F 100% 30.06 in 10.0 mi Calm Calm - N/A   Overcast
4:35 AM 53.6 °F 53.6 °F 100% 30.07 in 10.0 mi Calm Calm - N/A   Overcast
4:55 AM 53.6 °F 53.6 °F 100% 30.06 in 10.0 mi Calm Calm - N/A   Overcast
5:15 AM 53.6 °F 53.6 °F 100% 30.07 in 10.0 mi North 3.5 mph - N/A   Overcast
5:35 AM 55.4 °F 53.6 °F 94% 30.07 in 10.0 mi North 3.5 mph - N/A   Overcast
5:55 AM 55.4 °F 53.6 °F 94% 30.07 in 10.0 mi Calm Calm - N/A   Overcast
6:15 AM 55.4 °F 53.6 °F 94% 30.07 in 10.0 mi Calm Calm - N/A   Overcast
6:35 AM 55.4 °F 53.6 °F 94% 30.08 in 10.0 mi Calm Calm - N/A   Overcast
6:55 AM 55.4 °F 53.6 °F 94% 30.08 in 10.0 mi SW 3.5 mph - N/A   Overcast
7:15 AM 55.4 °F 53.6 °F 94% 30.08 in 10.0 mi Calm Calm - N/A   Overcast
7:35 AM 55.4 °F 53.6 °F 94% 30.08 in 10.0 mi Calm Calm - N/A   Overcast
7:55 AM 55.4 °F 53.6 °F 94% 30.08 in 10.0 mi Calm Calm - N/A   Overcast
8:15 AM 55.4 °F 53.6 °F 94% 30.09 in 10.0 mi Calm Calm - N/A   Overcast
8:35 AM 57.2 °F 53.6 °F 88% 30.09 in 10.0 mi Calm Calm - N/A   Overcast
8:55 AM 57.2 °F 53.6 °F 88% 30.09 in 10.0 mi Calm Calm - N/A   Overcast
9:15 AM 59.0 °F 53.6 °F 82% 30.10 in 10.0 mi Calm Calm - N/A   Overcast
9:35 AM 59.0 °F 53.6 °F 82% 30.10 in 10.0 mi ENE 3.5 mph - N/A   Mostly Cloudy
9:55 AM 59.0 °F 53.6 °F 82% 30.10 in 10.0 mi Calm Calm - N/A   Scattered Clouds
10:15 AM 62.6 °F 53.6 °F 72% 30.10 in 10.0 mi NNE 4.6 mph - N/A   Partly Cloudy
10:35 AM 62.6 °F 53.6 °F 72% 30.09 in 10.0 mi Calm Calm - N/A   Clear
10:55 AM 64.4 °F 53.6 °F 68% 30.09 in 10.0 mi Calm Calm - N/A   Clear
11:15 AM 66.2 °F 53.6 °F 64% 30.09 in 10.0 mi Calm Calm - N/A   Clear
11:35 AM 66.2 °F 53.6 °F 64% 30.09 in 10.0 mi Calm Calm - N/A   Clear
11:55 AM 68.0 °F 53.6 °F 60% 30.08 in 10.0 mi East 3.5 mph - N/A   Clear
12:15 PM 71.6 °F 55.4 °F 57% 30.07 in 10.0 mi SE 5.8 mph - N/A   Clear
12:35 PM 73.4 °F 53.6 °F 50% 30.06 in - ESE 3.5 mph - N/A   Clear
12:55 PM 73.4 °F 53.6 °F 50% 30.06 in - SSW 3.5 mph - N/A Rain Light Rain
1:15 PM 75.2 °F 53.6 °F 47% 30.05 in - SW 10.4 mph - N/A   Clear
1:35 PM 75.2 °F 53.6 °F 47% 30.05 in - WSW 15.0 mph - N/A   Clear
1:55 PM 77.0 °F 53.6 °F 44% 30.05 in - WSW 10.4 mph 18.4 mph N/A   Clear
2:15 PM 77.0 °F 53.6 °F 44% 30.04 in - SW 15.0 mph 19.6 mph N/A   Clear
2:35 PM 78.8 °F 50.0 °F 36% 30.04 in - West 4.6 mph - N/A   Clear
2:55 PM 77.0 °F 50.0 °F 39% 30.03 in - West 9.2 mph - N/A   Clear
3:15 PM 75.2 °F 51.8 °F 44% 30.03 in - WSW 16.1 mph 20.7 mph N/A   Clear
3:35 PM 75.2 °F 51.8 °F 44% 30.02 in - SW 17.3 mph 21.9 mph N/A   Clear
3:55 PM 75.2 °F 50.0 °F 41% 30.02 in - North 5.8 mph - N/A   Clear
4:15 PM 75.2 °F 51.8 °F 44% 30.02 in - WSW 13.8 mph - N/A   Clear
4:35 PM 73.4 °F 51.8 °F 47% 30.01 in - SW 18.4 mph - N/A   Clear
4:55 PM 73.4 °F 51.8 °F 47% 30.01 in 10.0 mi SW 13.8 mph 20.7 mph N/A   Clear
5:15 PM 71.6 °F 51.8 °F 50% 30.00 in 10.0 mi SW 18.4 mph 23.0 mph N/A   Clear
5:35 PM 71.6 °F 51.8 °F 50% 30.00 in 10.0 mi SW 16.1 mph 20.7 mph N/A   Clear
5:55 PM 71.6 °F 50.0 °F 46% 30.00 in 10.0 mi SW 17.3 mph - N/A   Clear
6:15 PM 69.8 °F 50.0 °F 49% 29.99 in 10.0 mi SSW 15.0 mph - N/A   Clear
6:35 PM 68.0 °F 50.0 °F 52% 29.99 in 10.0 mi SSW 15.0 mph 20.7 mph N/A   Clear
6:55 PM 69.8 °F 48.2 °F 46% 29.98 in 10.0 mi SSW 9.2 mph - N/A   Clear
7:15 PM 71.6 °F 48.2 °F 43% 29.98 in 10.0 mi SSW 10.4 mph 16.1 mph N/A   Clear
7:35 PM 68.0 °F 48.2 °F 49% 29.99 in 10.0 mi WNW 3.5 mph - N/A   Clear
7:55 PM 66.2 °F 48.2 °F 52% 29.99 in 10.0 mi SSW 8.1 mph - N/A   Clear
8:15 PM 64.4 °F 50.0 °F 59% 29.99 in 10.0 mi South 4.6 mph - N/A   Clear
8:35 PM 64.4 °F 50.0 °F 59% 30.00 in 10.0 mi SE 3.5 mph - N/A   Clear
8:55 PM 60.8 °F 50.0 °F 68% 30.00 in 10.0 mi East 8.1 mph - N/A   Clear
9:15 PM 60.8 °F 50.0 °F 68% 30.00 in 10.0 mi SE 5.8 mph - N/A   Clear
9:35 PM 59.0 °F 50.0 °F 72% 30.01 in 10.0 mi SSE 6.9 mph - N/A   Clear
9:55 PM 59.0 °F 50.0 °F 72% 30.01 in 10.0 mi SE 3.5 mph - N/A   Clear
10:15 PM 57.2 °F 50.0 °F 77% 30.01 in 10.0 mi ESE 4.6 mph - N/A   Clear
10:35 PM 59.0 °F 51.8 °F 77% 30.01 in 10.0 mi SE 4.6 mph - N/A   Clear
10:55 PM 57.2 °F 53.6 °F 88% 30.01 in 10.0 mi SE 4.6 mph - N/A   Clear
11:15 PM 57.2 °F 51.8 °F 82% 30.01 in 10.0 mi ESE 3.5 mph - N/A   Clear
11:35 PM 55.4 °F 50.0 °F 82% 30.01 in 10.0 mi SSE 3.5 mph - N/A   Clear
11:55 PM 57.2 °F 51.8 °F 82% 30.01 in 10.0 mi ESE 5.8 mph - N/A   Clear